• în România
  • Lista ţărilor
  • Pe 7 zile
  • Temperatura apei
  • Hartă satelitară
  • Meteo pe hartă
  • Widget-uri
  • user-avatar
    Intrare

    Meteo pe oră la Kipungo

    Astăzi, 26 Iunie, Luni

    Timp Temperatura Precipitaţii Vânt Presiune Umiditate
    00:00 +12°C° 0 mm 1 m/s 652 mmHg 53%
    01:00 +11°C° 0 mm 1 m/s 652 mmHg 58%
    02:00 +11°C° 0 mm 1 m/s 652 mmHg 60%
    03:00 +10°C° 0 mm 1 m/s 651 mmHg 62%
    04:00 +10°C° 0 mm 1 m/s 651 mmHg 64%
    05:00 +9°C° 0 mm 0 m/s 651 mmHg 63%
    06:00 +9°C° 0 mm 0 m/s 652 mmHg 62%
    07:00 +12°C° 0 mm 0 m/s 653 mmHg 55%
    08:00 +16°C° 0 mm 0 m/s 654 mmHg 43%
    09:00 +23°C° 0 mm 1 m/s 656 mmHg 31%
    10:00 +27°C° 0 mm 1 m/s 657 mmHg 19%
    11:00 +29°C° 0 mm 2 m/s 656 mmHg 17%
    12:00 +30°C° 0 mm 2 m/s 656 mmHg 16%
    13:00 +31°C° 0 mm 2 m/s 656 mmHg 15%
    14:00 +31°C° 0 mm 2 m/s 656 mmHg 14%
    15:00 +31°C° 0 mm 2 m/s 655 mmHg 14%
    16:00 +31°C° 0 mm 2 m/s 655 mmHg 14%
    17:00 +27°C° 0 mm 2 m/s 654 mmHg 21%
    18:00 +23°C° 0 mm 2 m/s 654 mmHg 29%
    19:00 +18°C° 0 mm 2 m/s 653 mmHg 37%
    20:00 +17°C° 0 mm 2 m/s 653 mmHg 39%
    21:00 +16°C° 0 mm 2 m/s 654 mmHg 41%
    22:00 +15°C° 0 mm 2 m/s 654 mmHg 43%
    23:00 +14°C° 0 mm 2 m/s 654 mmHg 47%

    Mâine, 27 Iunie, Marţi

    Timp Temperatura Precipitaţii Vânt Presiune Umiditate
    00:00 +14°C° 0 mm 1 m/s 654 mmHg 51%
    01:00 +13°C° 0 mm 1 m/s 653 mmHg 56%
    02:00 +12°C° 0 mm 1 m/s 653 mmHg 60%
    03:00 +11°C° 0 mm 1 m/s 653 mmHg 65%
    04:00 +10°C° 0 mm 1 m/s 652 mmHg 70%
    05:00 +11°C° 0 mm 1 m/s 653 mmHg 69%
    06:00 +11°C° 0 mm 1 m/s 653 mmHg 69%
    07:00 +12°C° 0 mm 1 m/s 653 mmHg 69%
    08:00 +16°C° 0 mm 1 m/s 655 mmHg 54%
    09:00 +22°C° 0 mm 1 m/s 656 mmHg 40%
    10:00 +26°C° 0 mm 2 m/s 657 mmHg 25%
    11:00 +28°C° 0 mm 2 m/s 657 mmHg 22%
    12:00 +30°C° 0 mm 1 m/s 657 mmHg 19%
    13:00 +33°C° 0 mm 1 m/s 657 mmHg 16%
    14:00 +32°C° 0 mm 1 m/s 657 mmHg 16%
    15:00 +32°C° 0 mm 1 m/s 656 mmHg 16%
    16:00 +29°C° 0 mm 0 m/s 655 mmHg 16%
    17:00 +25°C° 0 mm 0 m/s 655 mmHg 28%
    18:00 +22°C° 0 mm 1 m/s 654 mmHg 40%
    19:00 +18°C° 0 mm 1 m/s 653 mmHg 51%
    20:00 +18°C° 0 mm 1 m/s 653 mmHg 47%
    21:00 +17°C° 0 mm 2 m/s 654 mmHg 43%
    22:00 +17°C° 0 mm 2 m/s 655 mmHg 39%
    23:00 +16°C° 0 mm 2 m/s 654 mmHg 42%

    Poimâine, 28 Iunie, Miercuri

    Timp Temperatura Precipitaţii Vânt Presiune Umiditate
    00:00 +16°C° 0 mm 2 m/s 654 mmHg 46%
    01:00 +15°C° 0 mm 2 m/s 654 mmHg 49%
    02:00 +14°C° 0 mm 1 m/s 653 mmHg 53%
    03:00 +12°C° 0 mm 1 m/s 653 mmHg 57%
    04:00 +11°C° 0 mm 1 m/s 652 mmHg 61%
    05:00 +11°C° 0 mm 1 m/s 652 mmHg 61%
    06:00 +12°C° 0 mm 1 m/s 653 mmHg 61%
    07:00 +11°C° 0 mm 0 m/s 653 mmHg 61%
    08:00 +16°C° 0 mm 1 m/s 654 mmHg 48%
    09:00 +21°C° 0 mm 2 m/s 656 mmHg 36%
    10:00 +26°C° 0 mm 2 m/s 657 mmHg 23%
    11:00 +28°C° 0 mm 2 m/s 657 mmHg 21%
    12:00 +30°C° 0 mm 1 m/s 657 mmHg 18%
    13:00 +32°C° 0 mm 1 m/s 656 mmHg 16%
    14:00 +32°C° 0 mm 1 m/s 656 mmHg 16%
    15:00 +29°C° 0 mm 0 m/s 655 mmHg 16%
    16:00 +29°C° 0 mm 0 m/s 655 mmHg 16%
    17:00 +27°C° 0 mm 1 m/s 654 mmHg 24%
    18:00 +23°C° 0 mm 1 m/s 653 mmHg 32%
    19:00 +19°C° 0 mm 1 m/s 652 mmHg 40%
    20:00 +18°C° 0 mm 1 m/s 652 mmHg 38%
    21:00 +18°C° 0 mm 1 m/s 653 mmHg 37%
    22:00 +17°C° 0 mm 2 m/s 653 mmHg 35%
    23:00 +15°C° 0 mm 1 m/s 653 mmHg 38%

    29 Iunie, Joi

    Timp Temperatura Precipitaţii Vânt Presiune Umiditate
    00:00 +14°C° 0 mm 1 m/s 652 mmHg 41%
    01:00 +12°C° 0 mm 0 m/s 652 mmHg 44%
    02:00 +12°C° 0 mm 1 m/s 652 mmHg 45%
    03:00 +12°C° 0 mm 1 m/s 651 mmHg 46%
    04:00 +12°C° 0 mm 1 m/s 651 mmHg 47%
    05:00 +12°C° 0 mm 1 m/s 652 mmHg 47%
    06:00 +12°C° 0 mm 1 m/s 652 mmHg 47%
    07:00 +13°C° 0 mm 1 m/s 653 mmHg 47%
    08:00 +17°C° 0 mm 2 m/s 654 mmHg 38%
    09:00 +23°C° 0 mm 2 m/s 656 mmHg 30%
    10:00 +27°C° 0 mm 3 m/s 657 mmHg 22%
    11:00 +29°C° 0 mm 3 m/s 657 mmHg 20%
    12:00 +30°C° 0 mm 3 m/s 656 mmHg 18%
    13:00 +33°C° 0 mm 3 m/s 656 mmHg 17%
    14:00 +31°C° 0 mm 2 m/s 655 mmHg 17%
    15:00 +31°C° 0 mm 2 m/s 655 mmHg 16%
    16:00 +31°C° 0 mm 2 m/s 655 mmHg 16%
    17:00 +27°C° 0 mm 2 m/s 654 mmHg 24%
    18:00 +23°C° 0 mm 1 m/s 653 mmHg 31%
    19:00 +19°C° 0 mm 1 m/s 653 mmHg 38%
    20:00 +18°C° 0 mm 1 m/s 653 mmHg 40%
    21:00 +16°C° 0 mm 1 m/s 654 mmHg 41%
    22:00 +16°C° 0 mm 1 m/s 654 mmHg 43%
    23:00 +15°C° 0 mm 1 m/s 654 mmHg 45%

    30 Iunie, Vineri

    Timp Temperatura Precipitaţii Vânt Presiune Umiditate
    00:00 +14°C° 0 mm 1 m/s 653 mmHg 48%
    01:00 +13°C° 0 mm 1 m/s 653 mmHg 50%
    02:00 +12°C° 0 mm 1 m/s 652 mmHg 53%
    03:00 +12°C° 0 mm 1 m/s 652 mmHg 55%
    04:00 +10°C° 0 mm 0 m/s 652 mmHg 57%
    05:00 +10°C° 0 mm 0 m/s 652 mmHg 57%
    06:00 +10°C° 0 mm 0 m/s 653 mmHg 56%
    07:00 +11°C° 0 mm 0 m/s 653 mmHg 56%
    08:00 +16°C° 0 mm 1 m/s 655 mmHg 44%
    09:00 +21°C° 0 mm 2 m/s 656 mmHg 33%
    10:00 +27°C° 0 mm 2 m/s 658 mmHg 21%
    11:00 +28°C° 0 mm 2 m/s 657 mmHg 19%
    12:00 +30°C° 0 mm 2 m/s 657 mmHg 17%
    13:00 +31°C° 0 mm 2 m/s 656 mmHg 15%
    14:00 +31°C° 0 mm 2 m/s 656 mmHg 15%
    15:00 +31°C° 0 mm 1 m/s 656 mmHg 15%
    16:00 +31°C° 0 mm 1 m/s 655 mmHg 14%
    17:00 +27°C° 0 mm 1 m/s 654 mmHg 22%
    18:00 +22°C° 0 mm 1 m/s 654 mmHg 30%
    19:00 +18°C° 0 mm 1 m/s 653 mmHg 38%
    20:00 +18°C° 0 mm 1 m/s 654 mmHg 37%
    21:00 +17°C° 0 mm 2 m/s 654 mmHg 36%
    22:00 +17°C° 0 mm 2 m/s 654 mmHg 35%
    23:00 +16°C° 0 mm 2 m/s 654 mmHg 38%

    1 Iulie, Sâmbătă

    Timp Temperatura Precipitaţii Vânt Presiune Umiditate
    00:00 +15°C° 0 mm 2 m/s 654 mmHg 41%
    01:00 +13°C° 0 mm 1 m/s 653 mmHg 44%
    02:00 +13°C° 0 mm 1 m/s 653 mmHg 46%
    03:00 +12°C° 0 mm 1 m/s 653 mmHg 48%
    04:00 +12°C° 0 mm 1 m/s 652 mmHg 50%
    05:00 +12°C° 0 mm 1 m/s 653 mmHg 51%
    06:00 +12°C° 0 mm 1 m/s 653 mmHg 52%
    07:00 +12°C° 0 mm 1 m/s 653 mmHg 52%
    08:00 +18°C° 0 mm 1 m/s 655 mmHg 41%
    09:00 +22°C° 0 mm 1 m/s 656 mmHg 31%
    10:00 +27°C° 0 mm 2 m/s 658 mmHg 20%
    11:00 +28°C° 0 mm 2 m/s 657 mmHg 18%
    12:00 +30°C° 0 mm 2 m/s 657 mmHg 16%
    13:00 +31°C° 0 mm 2 m/s 656 mmHg 14%
    14:00 +31°C° 0 mm 2 m/s 656 mmHg 14%
    15:00 +31°C° 0 mm 1 m/s 655 mmHg 14%
    16:00 +31°C° 0 mm 1 m/s 655 mmHg 14%
    17:00 +26°C° 0 mm 1 m/s 654 mmHg 20%
    18:00 +22°C° 0 mm 1 m/s 653 mmHg 26%
    19:00 +18°C° 0 mm 1 m/s 653 mmHg 33%
    20:00 +16°C° 0 mm 1 m/s 653 mmHg 34%
    21:00 +16°C° 0 mm 1 m/s 653 mmHg 36%
    22:00 +16°C° 0 mm 1 m/s 653 mmHg 37%
    23:00 +15°C° 0 mm 1 m/s 653 mmHg 41%
    Arată mai mult